Regional Weather Roundup
Issued by NWS

Home | Current Version | Previous Version | Graphics & Text | Print | Product List | Glossary On
Versions: 1 2 3 4 5 6 7 8 9 10 11 12 13 14 15 16 17 18 19 20 21 22 23 24 25 26 27
000
ASUS45 KBOI 201510
RWRID

IDAHO REGIONAL WEATHER ROUNDUP
NATIONAL WEATHER SERVICE BOISE ID
800 AM MST FRI JAN 20 2017

NOTE: "FAIR" INDICATES FEW OR NO CLOUDS BELOW 12000 FEET
WITH NO SIGNIFICANT WEATHER AND/OR OBSTRUCTIONS TO VISIBILITY

IDZ012-014-201600-
SOUTHWEST IDAHO


CITY           SKY/WX    TMP DP  RH WIND       PRES   REMARKS
BOISE          MOCLDY    36  27  69 SE15      29.42F WCI  27
CALDWELL       MOCLDY    34  30  85 SE14      29.44F WCI  25
MOUNTAIN HOME  PTCLDY    29  29 100 SE17      29.46F WCI  17
$$

IDZ016-017-201600-
SOUTHCENTRAL IDAHO


CITY           SKY/WX    TMP DP  RH WIND       PRES   REMARKS
BURLEY         PTCLDY    31  22  69 S12       29.53F WCI  22
JEROME         CLEAR     29  26  89 E13       29.51F WCI  19
TWIN FALLS     CLEAR     30  22  72 SE10      29.50F WCI  21
$$

IDZ019>023-201600-
SOUTHEAST IDAHO


CITY           SKY/WX    TMP DP  RH WIND       PRES   REMARKS
IDAHO FALLS    MOCLDY    28  27  96 CALM      29.57F FOG
POCATELLO      CLOUDY    28  25  88 CALM      29.57F
REXBURG        LGT SNOW  28  28 100 CALM      29.56F FOG
$$

IDZ006-010-011-018-031-032-201600-
CENTRAL IDAHO MOUNTAINS


CITY           SKY/WX    TMP DP  RH WIND       PRES   REMARKS
MCCALL         CLOUDY    24  21  88 CALM      29.39F
HAILEY         CLOUDY    25  21  86 W6        29.52F WCI  18
STANLEY          N/A     15  14  95 CALM      29.44F
SALMON         CLOUDY    21  19  93 E5        29.54S WCI  15
CHALLIS        CLOUDY    12  10  92 CALM      29.52R FOG
$$

IDZ002-004-006-007-026-201600-
NORTHERN IDAHO


CITY           SKY/WX    TMP DP  RH WIND       PRES   REMARKS
LEWISTON       PTCLDY    34  30  85 E6        29.42F WCI  29
LOWELL           N/A     33  30  88 NW5       29.51F WCI  29
COEUR D`ALENE  CLOUDY    33  32  96 N12       29.42F WCI  24
MULLAN PASS    FOG       25  21  85 S7        29.37F VSB 1/2 WCI  17
$$




USA.gov is the U.S. government's official web portal to all federal, state and local government web resources and services.